sat.trackr.live / text

‹ back to catalog

STARLINK-35091

NORAD 65640 · 2025-210U

PAYLOAD ACTIVE UNKNOWN

§ Identity

Operator
Country
US
Launch date
2025-09-18
Launch site
AFETR
Launch vehicle
Mass (kg)
RCS (m²)

Purposes: comms

External: N2YO · Heavens-Above · Gunter

§ Orbital elements

Epoch: 2026-05-25T04:31:27.143904Z

Period
93.85 min
Inclination
53.1604°
Eccentricity
0.0001136
Mean motion
15.34395151 rev/d
Perigee alt
461.9 km
Apogee alt
463.5 km
Semi-major
6,840.9 km
B*
9.0976e-4
RAAN
311.0251°
Arg perigee
49.4964°
Mean anomaly
310.6137°
Rev number
3,945

§ Raw data

STARLINK-350911 65640U 25210U   26145.18850861  .00030482  00000+0  90976-3 0  99962 65640  53.1604 311.0251 0001136  49.4964 310.6137 15.34395151 39451

JSON: /api/v1/satellites/65640 · /tle

For live sub-satellite position, see the globe view (requires WebGL).

§ Visibility from observer

Set your observer location to see the next 7 days of passes ≥ 10°. The values pass through the URL so the page stays shareable.

No JS? Fill the form by hand. The geolocation button needs JavaScript.